Hartford, CT

6:19 AM EDT on June 27, 2017 (GMT -0400)
Hartford-brainard

Weather History for KHFD - June, 2013

Change the Weather History Date:

Saturday, June 22, 2013

  Actual Average Record
Temperature  
Mean Temperature 73 °F -  
Max Temperature 84 °F 80 °F 95 °F (1921)
Min Temperature 62 °F 59 °F 41 °F (1940)
Cooling Degree Days 8    
Growing Degree Days 23 (Base 50)    
Moisture  
Dew Point 57 °F    
Average Humidity 60    
Maximum Humidity 78    
Minimum Humidity 38    
Precipitation  
Precipitation 0.00 in - - ()
Sea Level Pressure  
Sea Level Pressure 30.20 in    
Wind  
Wind Speed 7 mph (South)    
Max Wind Speed 14 mph    
Max Gust Speed 20 mph    
Visibility 10 miles    
Events      
Averages and records for this station are not official NWS values.
T = Trace of Precipitation, MM = Missing Value Source: NWS Daily Summary

Daily Weather History Graph

Daily Weather History Graph

Search for Another Location

Airport or City:

Trip Planner

Search our weather history database for the weather conditions in past years. The results will help you decide how hot, cold, wet, or windy it might be!

Date:

Astronomy

Jun. 22, 2013 Rise Set
Actual Time 5:16 AM EDT 8:29 PM EDT
Civil Twilight 4:42 AM EDT 9:03 PM EDT
Nautical Twilight 3:57 AM EDT 9:47 PM EDT
Astronomical Twilight 3:04 AM EDT 10:40 PM EDT
Moon 7:39 PM EDT (6/22) 4:26 AM EDT (6/22)
Length of Visible Light 16h 21m
Length of Day
15h 12m
Waxing Gibbous, 99% of the Moon is Illuminated
Jun 22
Waxing Gibbous
Jun 23
Full
Jun 30
Last Quarter
Jul 8
New
Jul 15
First Quarter

Hourly Weather History & Observations

Time (EDT) Temp. Heat Index Dew Point Humidity Pressure Visibility Wind Dir Wind Speed Gust Speed Precip Events Conditions
12:53 AM 66.0 °F - 55.0 °F 68% 30.24 in 10.0 mi South 5.8 mph - N/A   Partly Cloudy
1:53 AM 66.0 °F - 55.9 °F 70% 30.24 in 10.0 mi South 4.6 mph - N/A   Mostly Cloudy
2:53 AM 64.9 °F - 55.9 °F 73% 30.25 in 10.0 mi South 4.6 mph - N/A   Overcast
3:53 AM 63.0 °F - 55.9 °F 78% 30.23 in 10.0 mi South 4.6 mph - N/A   Clear
4:53 AM 63.0 °F - 55.0 °F 75% 30.24 in 10.0 mi South 3.5 mph - N/A   Clear
5:53 AM 62.1 °F - 55.0 °F 78% 30.24 in 10.0 mi SSE 4.6 mph - N/A   Clear
6:53 AM 64.0 °F - 55.9 °F 75% 30.23 in 10.0 mi South 4.6 mph - N/A   Clear
7:53 AM 68.0 °F - 57.0 °F 68% 30.23 in 10.0 mi South 4.6 mph - N/A   Clear
8:53 AM 72.0 °F - 55.9 °F 57% 30.23 in 10.0 mi South 9.2 mph - N/A   Clear
9:53 AM 75.0 °F - 57.0 °F 53% 30.24 in 10.0 mi Variable 4.6 mph - N/A   Clear
10:53 AM 79.0 °F - 57.9 °F 48% 30.24 in 10.0 mi SW 5.8 mph - N/A   Clear
11:53 AM 81.0 °F 81.0 °F 57.0 °F 44% 30.22 in 10.0 mi SW 10.4 mph - N/A   Clear
12:53 PM 82.0 °F 81.6 °F 55.9 °F 41% 30.21 in 10.0 mi South 12.7 mph 18.4 mph N/A   Clear
1:53 PM 82.9 °F 82.0 °F 55.0 °F 38% 30.19 in 10.0 mi SSW 8.1 mph - N/A   Clear
2:53 PM 84.0 °F 83.3 °F 57.0 °F 40% 30.17 in 10.0 mi SSW 8.1 mph 16.1 mph N/A   Clear
3:53 PM 82.9 °F 83.2 °F 60.1 °F 46% 30.14 in 10.0 mi South 10.4 mph - N/A   Clear
4:53 PM 82.0 °F 81.7 °F 57.0 °F 42% 30.14 in 10.0 mi South 13.8 mph 19.6 mph N/A   Clear
5:53 PM 78.1 °F - 60.1 °F 54% 30.14 in 10.0 mi South 12.7 mph - N/A   Clear
6:53 PM 75.9 °F - 60.1 °F 58% 30.13 in 10.0 mi South 10.4 mph - N/A   Clear
7:53 PM 73.0 °F - 57.9 °F 59% 30.13 in 10.0 mi South 12.7 mph 18.4 mph N/A   Clear
8:53 PM 71.1 °F - 57.9 °F 63% 30.14 in 10.0 mi South 3.5 mph - N/A   Clear
9:53 PM 70.0 °F - 59.0 °F 68% 30.17 in 10.0 mi South 5.8 mph - N/A   Clear
10:53 PM 69.1 °F - 59.0 °F 70% 30.17 in 10.0 mi South 5.8 mph - N/A   Clear
11:53 PM 66.9 °F - 59.0 °F 76% 30.17 in 10.0 mi South 5.8 mph - N/A   Clear